Content
SEND FEEDBACK

Daily
Averages
Monthly
Summary
United States of America

FOWLER, INDIANA


Home > North America > United States > Indiana
Elevation: 814 feet     Latitude: 40 37N     Longitude: 087 19W

WEATHER
 
SELECT A DAY
Number of Records: 80,856;   Date Range: 5/23/11 - 10/1/14
 
SHARE

PRINT THIS DATA

[ ← Previous Day ]
WEATHER ALMANAC - JANUARY 31, 2013
[ Next Day → ]
[ °C ]   °F
Weather ElementAverageHighLow
Temperature18.5 °F23 °F (12:35 am)8.6 °F (10:35 pm)
Dewpoint12.3 °F19.4 °F (12:35 am)1.4 °F (10:15 pm)
Humidity77.2 %93 % (7:15 am)67 % (10:15 pm)
Barometer29.89 in30.15 in (11:35 pm)29.66 in (12:35 am)
Wind Speed20.5 mph31.1 mph (2:35 am)
Wind Gust38 mph (2:35 am)
Weather ElementAverage
Visibility8 mi
Wind DirectionW (265.9 °)

Weather ElementTotal
Precipitation0.04 in
Heating Degree Days49.2 (Base 65)
Averaged from 69 records on January 31, 2013
WEATHER CONDITIONS BREAKOUT
WIND DIRECTION BREAKOUT
WEATHER BY HOUR - JANUARY 31, 2013
[ °C ]   °F
Local TimeTemperatureDewpointHumidityBarometerVisibilityWind DirectionWind SpeedGust SpeedPrecipitationEventsConditions
12:35 AM23.0 °F19.4 °F86 %29.66 in7.0 miWest (260°)21.9 mph34.5 mph0.01 inSnowLight Snow
12:55 AM23.0 °F19.4 °F86 %29.67 in7.0 miWest (260°)27.6 mph34.5 mph0.01 inSnowLight Snow
1:15 AM23.0 °F19.4 °F86 %29.68 in10.0 miWest (270°)24.2 mph33.4 mphOvercast
1:35 AM23.0 °F19.4 °F86 %29.69 in7.0 miWest (260°)29.9 mph36.8 mph0.01 inSnowLight Snow
1:55 AM23.0 °F19.4 °F86 %29.70 in7.0 miWest (260°)16.1 mph34.5 mph0.01 inSnowLight Snow
2:15 AM21.2 °F17.6 °F86 %29.71 in7.0 miWSW (250°)27.6 mph35.7 mphSnowLight Snow
2:35 AM21.2 °F14.0 °F74 %29.72 in10.0 miWest (270°)31.1 mph38.0 mphSnowLight Snow
2:55 AM21.2 °F14.0 °F74 %29.73 in10.0 miWest (270°)25.3 mph33.4 mphSnowLight Snow
3:15 AM21.2 °F14.0 °F74 %29.73 in10.0 miWest (280°)18.4 mph34.5 mphOvercast
3:35 AM21.2 °F15.8 °F80 %29.73 in5.0 miWest (270°)21.9 mph28.8 mphSnowLight Snow
3:55 AM21.2 °F17.6 °F86 %29.74 in2.5 miWest (260°)24.2 mph28.8 mphSnowLight Snow
4:15 AM19.4 °F14.0 °F80 %29.75 in10.0 miWest (270°)23.0 mph32.2 mphOvercast
4:35 AM19.4 °F12.2 °F74 %29.75 in10.0 miWest (260°)21.9 mph34.5 mphOvercast
4:55 AM19.4 °F12.2 °F74 %29.76 in10.0 miWest (260°)20.7 mph32.2 mphMostly Cloudy
5:15 AM19.4 °F12.2 °F74 %29.76 in10.0 miWest (260°)21.9 mph31.1 mphMostly Cloudy
5:35 AM19.4 °F14.0 °F80 %29.77 in10.0 miWest (270°)17.3 mph28.8 mphOvercast
6:15 AM21.2 °F17.6 °F86 %29.78 in10.0 miWest (270°)17.3 mph24.2 mphOvercast
6:35 AM21.2 °F17.6 °F86 %29.78 in10.0 miWest (260°)16.1 mph24.2 mphSnowLight Snow
6:55 AM21.2 °F17.6 °F86 %29.78 in10.0 miWest (260°)15.0 mph21.9 mphOvercast
7:15 AM21.2 °F19.4 °F93 %29.79 in10.0 miWest (260°)13.8 mph18.4 mphOvercast
7:35 AM23.0 °F19.4 °F86 %29.80 in7.0 miWNW (290°)12.7 mphSnowLight Snow
7:55 AM23.0 °F17.6 °F80 %29.81 in10.0 miWest (260°)23.0 mph29.9 mphOvercast
8:15 AM23.0 °F15.8 °F74 %29.82 in10.0 miWSW (250°)23.0 mph29.9 mphMostly Cloudy
8:35 AM23.0 °F15.8 °F74 %29.83 in10.0 miWest (260°)27.6 mph35.7 mphMostly Cloudy
8:55 AM23.0 °F14.0 °F68 %29.84 in10.0 miWest (260°)23.0 mph29.9 mphOvercast
9:15 AM23.0 °F15.8 °F74 %29.84 in10.0 miWSW (250°)18.4 mph31.1 mphMostly Cloudy
9:35 AM21.2 °F14.0 °F74 %29.85 in10.0 miWSW (250°)21.9 mph31.1 mphScattered Clouds
9:55 AM21.2 °F14.0 °F74 %29.86 in10.0 miWest (260°)21.9 mph31.1 mphScattered Clouds
10:15 AM21.2 °F14.0 °F74 %29.87 in10.0 miWest (260°)20.7 mph28.8 mphScattered Clouds
10:35 AM23.0 °F14.0 °F68 %29.87 in10.0 miWest (260°)18.4 mph26.5 mphScattered Clouds
10:55 AM23.0 °F14.0 °F68 %29.88 in10.0 miWest (260°)23.0 mph28.8 mphScattered Clouds
11:15 AM23.0 °F14.0 °F68 %29.88 in10.0 miWest (260°)20.7 mph25.3 mphScattered Clouds
11:35 AM23.0 °F14.0 °F68 %29.89 in10.0 miWest (260°)25.3 mph29.9 mphMostly Cloudy
11:55 AM21.2 °F14.0 °F74 %29.89 in10.0 miWSW (250°)17.3 mph28.8 mphOvercast
12:15 PM21.2 °F14.0 °F74 %29.89 in10.0 miWest (270°)20.7 mph27.6 mphOvercast
12:35 PM21.2 °F14.0 °F74 %29.89 in10.0 miWest (270°)19.6 mph26.5 mphSnowLight Snow
12:55 PM21.2 °F12.2 °F68 %29.89 in10.0 miWSW (250°)21.9 mph27.6 mphOvercast
1:15 PM21.2 °F14.0 °F74 %29.90 in3.0 miWest (260°)18.4 mph28.8 mphSnowLight Snow
1:35 PM19.4 °F15.8 °F86 %29.90 in1.2 miWSW (250°)19.6 mph27.6 mphSnowLight Snow
1:55 PM21.2 °F15.8 °F80 %29.90 in5.0 miWSW (250°)20.7 mph26.5 mphSnowLight Snow
2:15 PM19.4 °F12.2 °F74 %29.90 in7.0 miWest (260°)24.2 mph31.1 mphSnowLight Snow
2:35 PM21.2 °F12.2 °F68 %29.90 in10.0 miWest (270°)19.6 mph31.1 mphOvercast
2:55 PM19.4 °F14.0 °F80 %29.90 in5.0 miWest (260°)18.4 mph27.6 mphHaze
3:15 PM19.4 °F14.0 °F80 %29.91 in7.0 miWest (270°)18.4 mph24.2 mphSnowLight Snow
3:35 PM19.4 °F12.2 °F74 %29.92 in5.0 miWest (270°)19.6 mph26.5 mphSnowLight Snow
3:55 PM19.4 °F12.2 °F74 %29.93 in4.0 miWest (270°)20.7 mphSnowLight Snow
4:15 PM19.4 °F10.4 °F68 %29.94 in10.0 miWest (270°)19.6 mph27.6 mphOvercast
4:35 PM17.6 °F10.4 °F73 %29.95 in10.0 miWest (270°)16.1 mph32.2 mphOvercast
4:55 PM17.6 °F10.4 °F73 %29.96 in5.0 miWest (260°)21.9 mph26.5 mphSnowLight Snow
5:15 PM17.6 °F10.4 °F73 %29.97 in7.0 miWest (260°)18.4 mph28.8 mphSnowLight Snow
5:35 PM15.8 °F10.4 °F79 %29.98 in5.0 miWest (270°)17.3 mph24.2 mphSnowLight Snow
5:55 PM15.8 °F8.6 °F73 %29.99 in10.0 miWest (260°)17.3 mph29.9 mphMostly Cloudy
6:15 PM14.0 °F8.6 °F79 %30.00 in10.0 miWest (270°)23.0 mph29.9 mphMostly Cloudy
6:35 PM14.0 °F8.6 °F79 %30.01 in10.0 miWest (270°)23.0 mph31.1 mphMostly Cloudy
6:55 PM14.0 °F6.8 °F73 %30.02 in10.0 miWest (270°)21.9 mph28.8 mphOvercast
7:15 PM14.0 °F8.6 °F79 %30.03 in7.0 miWest (260°)20.7 mph27.6 mphSnowLight Snow
7:35 PM12.2 °F8.6 °F85 %30.04 in3.0 miWest (280°)17.3 mph27.6 mphSnowLight Snow
7:55 PM12.2 °F8.6 °F85 %30.04 in2.5 miWest (280°)21.9 mph29.9 mphSnowLight Snow
8:15 PM12.2 °F5.0 °F73 %30.06 in10.0 miWest (280°)20.7 mph31.1 mphOvercast
8:35 PM10.4 °F3.2 °F73 %30.07 in10.0 miWest (280°)21.9 mph28.8 mphScattered Clouds
8:55 PM10.4 °F5.0 °F79 %30.09 in5.0 miWest (280°)17.3 mph27.6 mphHaze
9:15 PM10.4 °F3.2 °F73 %30.09 in10.0 miWest (280°)21.9 mph28.8 mphMostly Cloudy
9:35 PM10.4 °F5.0 °F79 %30.10 in3.0 miWest (270°)19.6 mph28.8 mphHaze
9:55 PM10.4 °F3.2 °F73 %30.11 in10.0 miWNW (290°)18.4 mph25.3 mphMostly Cloudy
10:15 PM10.4 °F1.4 °F67 %30.12 in10.0 miWest (280°)16.1 mph28.8 mphScattered Clouds
10:35 PM8.6 °F3.2 °F79 %30.13 in7.0 miWest (270°)17.3 mph24.2 mphMostly Cloudy
10:55 PM8.6 °F3.2 °F79 %30.14 in3.0 miWest (280°)18.4 mph31.1 mphHaze
11:15 PM8.6 °F3.2 °F79 %30.14 in7.0 miWest (280°)13.8 mph26.5 mphOvercast
11:35 PM8.6 °F5.0 °F85 %30.15 in3.0 miWest (280°)15.0 mph24.2 mphOvercast
Hourly data recorded from KRZL, located miles away from Fowler, Indiana







STORIES FROM OUR PARTNERS